Regional Weather Roundup
Issued by NWS

Home | Current Version | Previous Version | Graphics & Text | Print | Product List | Glossary On
Versions: 1 2 3 4 5 6 7 8 9 10 11 12 13 14 15 16 17 18 19 20 21 22 23 24 25 26 27 28 29 30 31 32 33 34 35 36 37 38 39 40 41 42 43 44 45 46 47 48 49 50
000
ASUS43 KTOP 190008
RWRKS

WEATHER ROUNDUP FOR KANSAS
NATIONAL WEATHER SERVICE GOODLAND KS
700 PM CDT MON SEP 18 2017

NOTE:  "FAIR" INDICATES FEW OR NO CLOUDS BELOW 12,000 FEET WITH NO
SIGNIFICANT WEATHER AND/OR OBSTRUCTIONS TO VISIBILITY.

KSZ001>006-013>018-027>032-041>047-190100-
NORTHWEST KANSAS

CITY           SKY/WX    TMP DP  RH WIND       PRES   REMARKS
GOODLAND       CLEAR     79  49  34 E8        29.89F
6HR MIN TEMP:  73; 6HR MAX TEMP:  85;

HAYS           CLEAR     85  60  42 S10       29.84S
HILL CITY      CLEAR     86  56  35 NE6       29.84S
6HR MIN TEMP:  79; 6HR MAX TEMP:  88;

RUSSELL        PTCLDY    86  57  37 SW7       29.83R
6HR MIN TEMP:  84; 6HR MAX TEMP:  90;

$$

KSZ061>065-074>080-084>089-190100-
SOUTHWEST KANSAS

CITY           SKY/WX    TMP DP  RH WIND       PRES   REMARKS
DODGE CITY     CLEAR     83  58  42 S10       29.88S
6HR MIN TEMP:  79; 6HR MAX TEMP:  86;

ELKHART          N/A     83  59  44 SE8         N/A
GARDEN CITY    CLEAR     83  55  38 S12       29.87F
6HR MIN TEMP:  77; 6HR MAX TEMP:  87;

GREAT BEND     PTCLDY    86  61  42 S12       29.85S
LIBERAL        CLEAR     82  62  50 S8        29.90F
PRATT          PTCLDY    82  59  44 S12       29.88S
6HR MIN TEMP:  82; 6HR MAX TEMP:  87;

$$

KSZ066>073-081>083-090>101-190100-
SOUTHEAST KANSAS

CITY           SKY/WX    TMP DP  RH WIND       PRES   REMARKS
CHANUTE        CLEAR     77  67  71 S7        29.92S
6HR MIN TEMP:  73; 6HR MAX TEMP:  81; 6HR PCP: TRACE;

COFFEYVILLE    CLEAR     79  68  69 MISG      29.91S
6HR MIN TEMP:  72; 6HR MAX TEMP:  83; 6HR PCP: TRACE;

HUTCHINSON     CLEAR     83  63  50 S9        29.87R
6HR MIN TEMP:  80; 6HR MAX TEMP:  88;

MEDICINE LODGE   N/A     83  64  52 S6        29.86S
NEWTON         CLEAR     80  63  55 S12       29.90R
WICHITA INTL   PTCLDY    82  64  54 S13       29.88R
6HR MIN TEMP:  80; 6HR MAX TEMP:  89;

WICHITA JABRA  CLEAR     81  63  54 S13       29.89R
6HR MIN TEMP:  79; 6HR MAX TEMP:  87;

WICHITA MCCONL PTCLDY    82  62  50 S9        29.89S
WINFIELD       PTCLDY    80  65  59 SE6       29.90F
6HR MIN TEMP:  79; 6HR MAX TEMP:  85;

$$

KSZ007>012-019>026-033>040-048>060-102>105-190100-
NORTHEAST KANSAS

CITY           SKY/WX    TMP DP  RH WIND       PRES   REMARKS
CONCORDIA      CLOUDY    77  68  73 E7        29.86F
6HR MIN TEMP:  71; 6HR MAX TEMP:  81;

EMPORIA        CLEAR     78  66  66 SE8       29.90R
6HR MIN TEMP:  70; 6HR MAX TEMP:  82; 6HR PCP: TRACE;

LAWRENCE       PTCLDY    74  69  85 E5        29.91S
6HR MIN TEMP:  69; 6HR MAX TEMP:  78;

MANHATTAN      MOCLDY    78  67  68 SE5       29.86S
6HR MIN TEMP:  74; 6HR MAX TEMP:  84;

MARYSVILLE     CLEAR     77  64  65 SE5       29.87F
OLATHE IND     MOCLDY    73  68  84 S6        29.94R
6HR MIN TEMP:  68; 6HR MAX TEMP:  75; 6HR PCP: TRACE;

OLATHE EXE     PTCLDY    72  68  87 S6        29.94R
6HR MIN TEMP:  66; 6HR MAX TEMP:  74; 6HR PCP: TRACE;

SALINA         LGT RAIN  79  66  64 NE13      29.86R
6HR MIN TEMP:  75; 6HR MAX TEMP:  91; 6HR PCP:  0.09;

TOPEKA BILLARD CLEAR     76  69  79 SE5       29.90S
6HR MIN TEMP:  72; 6HR MAX TEMP:  80;

$$




USA.gov is the U.S. government's official web portal to all federal, state and local government web resources and services.